User: anonymous   Login
Location: Oshawa
(43.9000°N, 78.8670°W)
Time: 00:00:03
(UTC-04:00)
Language:

Explorer 7 - Orbit

View from above orbital plane
View from above orbital plane
View from above satellite
View from above satellite

Ground track
Ground track

The orbit data is extracted from the following two-line orbital elements,

1    22U 59009A   17231.26764669 +.00000365 +00000-0 +50797-4 0  9993
2    22 050.2844 266.7281 0142126 273.7633 084.7073 14.94195353315831
Epoch (UTC): 19 August 2017 06:25:24
Eccentricity: 0.0142126
inclination: 50.2844°
perigee height: 486 km
apogee height: 684 km
right ascension of ascending node: 266.7281°
argument of perigee: 273.7633°
revolutions per day: 14.94195353
mean anomaly at epoch: 84.7073°
orbit number at epoch: 31583

The dashed part of the orbit path shows where the satellite is in the earth's shadow,  

DLR